CW5306 Weather Reports


time (UTC)temp
C
wind
direction
speed
KPH
gust
KPH
rain 1hr
cm
rain 24hr
cm
rain mn
cm
humidity
%
barometer
mb
20260506142255 18 250 0.0 0.0 0.00 0.00 0.00 91 1015.3
20260506141755 18 256 0.0 0.0 0.00 0.00 0.00 91 1015.0
20260506141256 18 275 0.0 0.0 0.00 0.00 0.00 91 1015.2
20260506140758 18 240 0.0 0.0 0.00 0.00 0.00 91 1015.2
20260506140255 18 250 0.0 0.0 0.00 0.00 0.00 91 1015.3
20260506140027 18 243 0.0 0.0 0.00 0.00 0.00 91 1015.1
20260506135256 18 272 0.0 0.0 0.00 0.00 0.00 91 1015.1
20260506135027 18 229 0.0 0.0 0.00 0.00 0.00 91 1015.3
20260506134256 18 234 0.0 0.0 0.00 0.00 0.00 91 1015.1
20260506133744 18 255 0.0 0.0 0.00 0.00 0.00 91 1015.0
20260506133244 18 277 0.0 0.0 0.00 0.00 0.00 91 1014.9
20260506132744 18 279 0.0 0.0 0.00 0.00 0.00 91 1015.0
20260506132244 18 296 0.0 0.0 0.00 0.00 0.00 91 1015.2
20260506131745 18 267 0.0 0.0 0.00 0.00 0.00 90 1015.0
20260506131243 18 275 0.0 0.0 0.00 0.00 0.00 90 1015.2
20260506130744 18 264 0.0 0.0 0.00 0.00 0.00 90 1015.2
20260506130515 18 250 0.0 0.0 0.00 0.00 0.00 90 1015.1
20260506130014 18 246 0.0 0.0 0.00 0.00 0.00 91 1015.3
20260506125245 18 242 0.0 0.0 0.00 0.00 0.00 90 1015.2
20260506124743 18 241 0.0 0.0 0.00 0.00 0.00 90 1015.1
20260506124514 18 243 0.0 0.0 0.00 0.00 0.00 90 1015.4
20260506123732 18 243 0.0 0.0 0.00 0.00 0.00 90 1015.4
20260506123232 18 243 0.0 0.0 0.00 0.00 0.00 90 1015.6
20260506122951 18 244 0.0 0.0 0.00 0.00 0.00 90 1015.5
20260506122220 18 243 0.0 0.0 0.00 0.00 0.00 91 1015.4
20260506121721 18 234 0.0 0.0 0.00 0.00 0.00 90 1015.6
20260506121208 18 229 0.0 0.0 0.00 0.00 0.00 90 1015.5
20260506120708 18 229 0.0 0.0 0.00 0.00 0.00 90 1015.9
20260506120208 18 229 0.0 0.0 0.00 0.00 0.00 90 1015.8
20260506115655 19 229 0.0 0.0 0.00 0.00 0.00 90 1016.0
20260506115155 19 229 0.0 0.0 0.00 0.00 0.00 90 1016.1
20260506114656 19 229 0.0 0.0 0.00 0.00 0.00 90 1016.1
20260506114418 19 229 0.0 0.0 0.00 0.00 0.00 90 1016.2
20260506114250 19 229 0.0 0.0 0.00 0.00 0.00 90 1016.1
20260506113143 19 229 0.0 0.0 0.00 0.00 0.00 90 1016.3
20260506112645 19 229 0.0 0.0 0.00 0.00 0.00 90 1016.3
20260506112131 19 229 0.0 0.0 0.00 0.00 0.00 90 1016.5
20260506111633 19 229 0.0 0.0 0.00 0.00 0.00 90 1016.3
20260506111107 19 229 0.0 0.0 0.00 0.00 0.00 90 1016.3
20260506110608 19 229 0.0 0.0 0.00 0.00 0.00 90 1016.4
20260506110058 19 228 0.0 0.0 0.00 0.00 0.00 90 1016.4
20260506105555 19 229 0.0 0.0 0.00 0.00 0.00 90 1016.6
20260506105055 19 229 0.0 0.0 0.00 0.00 0.00 90 1016.6
20260506104802 19 229 0.0 0.0 0.00 0.00 0.00 90 1016.9
20260506104302 19 229 0.0 0.0 0.00 0.00 0.00 90 1016.6
20260506103532 19 229 0.0 0.0 0.00 0.00 0.00 90 1016.8
20260506103032 19 229 0.0 0.0 0.00 0.00 0.00 90 1016.7
20260506102534 19 229 0.0 0.0 0.00 0.00 0.00 90 1017.0
20260506102032 19 229 0.0 0.0 0.00 0.00 0.00 89 1017.0
20260506101520 19 229 0.0 0.0 0.00 0.00 0.00 89 1016.9
20260506101250 19 229 0.0 0.0 0.00 0.00 0.00 89 1016.9
20260506100519 19 225 0.0 0.0 0.00 0.00 0.00 89 1017.0
20260506100008 19 225 0.0 0.0 0.00 0.00 0.00 89 1016.9
20260506095508 19 225 0.0 0.0 0.00 0.00 0.00 89 1017.0
20260506095008 19 225 0.0 0.0 0.00 0.00 0.00 89 1016.9
20260506094507 20 225 0.0 0.0 0.00 0.00 0.00 89 1017.0
20260506094007 20 225 0.0 0.0 0.00 0.00 0.00 89 1016.9
20260506093507 20 225 0.0 0.0 0.00 0.00 0.00 89 1017.0
20260506093239 20 225 0.0 0.0 0.00 0.00 0.00 89 1017.0
20260506092508 20 225 0.0 0.0 0.00 0.00 0.00 89 1017.1
20260506092008 20 225 0.0 0.0 0.00 0.00 0.00 89 1017.1
20260506091739 20 225 0.0 0.0 0.00 0.00 0.00 89 1017.3
20260506091240 20 225 0.0 0.0 0.00 0.00 0.00 89 1017.3
20260506090507 20 225 0.0 0.0 0.00 0.00 0.00 89 1017.4
20260506090238 20 225 0.0 0.0 0.00 0.00 0.00 89 1017.1
20260506085507 20 225 0.0 0.0 0.00 0.00 0.00 89 1017.3
20260506085007 20 225 0.0 0.0 0.00 0.00 0.00 89 1017.0
20260506084507 20 225 0.0 0.0 0.00 0.00 0.00 89 1016.7
20260506084239 20 225 0.0 0.0 0.00 0.00 0.00 89 1017.0
20260506083508 20 225 0.0 0.0 0.00 0.00 0.00 89 1017.1
20260506083008 20 225 0.0 0.0 0.00 0.00 0.00 89 1017.0
20260506082508 20 225 0.0 1.6 0.00 0.00 0.00 89 1017.0
20260506082007 20 225 0.0 1.6 0.00 0.00 0.00 89 1017.2
20260506081508 20 225 0.0 0.0 0.00 0.00 0.00 88 1017.2
20260506081007 20 225 0.0 0.0 0.00 0.00 0.00 88 1016.9
20260506080507 20 225 0.0 0.0 0.00 0.00 0.00 88 1016.9
20260506073455 20 224 0.0 0.0 0.00 0.00 0.00 88 1016.6
20260506073227 20 224 0.0 0.0 0.00 0.00 0.00 88 1016.6
20260506072457 20 224 0.0 0.0 0.00 0.00 0.00 88 1016.5
20260506071956 20 224 0.0 0.0 0.00 0.00 0.00 88 1016.8
20260506071726 20 224 0.0 0.0 0.00 0.00 0.00 88 1016.6
20260506070956 21 224 0.0 0.0 0.00 0.00 0.00 88 1016.8
20260506070456 21 224 0.0 0.0 0.00 0.00 0.00 88 1016.4
20260506062456 21 224 0.0 0.0 0.00 0.00 0.00 87 1015.9
20260506061955 21 223 0.0 0.0 0.00 0.00 0.00 87 1015.8
20260506061456 21 217 0.0 0.0 0.00 0.00 0.00 87 1015.8
20260506061228 22 218 0.0 0.0 0.00 0.00 0.00 87 1015.9
20260506060456 22 218 0.0 0.0 0.00 0.00 0.00 87 1015.8
20260506050956 23 196 0.0 0.0 0.00 0.00 0.00 83 1015.1
20260506050727 23 197 0.0 0.0 0.00 0.00 0.00 83 1015.2
20260506044955 23 159 0.0 0.0 0.00 0.00 0.00 82 1015.2
20260506044455 23 185 0.0 0.0 0.00 0.00 0.00 82 1015.1
20260506043956 23 152 0.0 1.6 0.00 0.00 0.00 82 1015.2
20260506043727 23 156 0.0 3.2 0.00 0.00 0.00 81 1015.1
20260506042956 23 146 0.0 8.0 0.00 0.00 0.00 80 1014.8
20260506042456 23 150 0.0 8.0 0.00 0.00 0.00 80 1014.8
20260506041957 24 150 0.0 9.7 0.00 0.00 0.00 80 1014.7
20260506041727 24 124 0.0 6.4 0.00 0.00 0.00 79 1014.6
20260506040956 24 124 0.0 9.7 0.00 0.00 0.00 79 1014.7
20260506040729 24 144 0.0 12.9 0.00 0.00 0.00 79 1014.5
20260506035956 24 137 0.0 12.9 0.00 0.00 0.00 79 1014.6
20260506035726 25 145 8.0 12.9 0.00 0.00 0.00 79 1014.6
20260506035226 25 155 0.0 0.0 0.00 0.00 0.00 78 1014.6
20260506034455 25 193 0.0 0.0 0.00 0.00 0.00 78 1014.5
20260506033957 25 101 0.0 6.4 0.00 0.00 0.00 78 1014.5
20260506033455 25 108 0.0 8.0 0.00 0.00 0.00 77 1014.3
20260506032957 25 110 0.0 9.7 0.00 0.00 0.00 77 1014.4
20260506032455 25 120 4.8 9.7 0.00 0.00 0.00 77 1014.5
20260506031956 25 114 4.8 8.0 0.00 0.00 0.00 77 1014.3
20260506031456 25 104 0.0 12.9 0.00 0.00 0.00 77 1014.3
20260506030956 25 123 0.0 12.9 0.00 0.00 0.00 77 1014.4
20260506030457 25 117 1.6 9.7 0.00 0.00 0.00 78 1014.5
20260506030226 24 107 6.4 12.9 0.00 0.00 0.00 79 1014.4
20260506025455 24 134 0.0 12.9 0.00 0.00 0.00 78 1014.4
20260506024957 25 99 0.0 12.9 0.00 0.00 0.00 77 1014.6
20260506024455 25 123 4.8 12.9 0.00 0.00 0.00 78 1014.6
20260506023956 25 120 9.7 12.9 0.00 0.00 0.00 75 1014.6
20260506023726 25 110 0.0 9.7 0.00 0.00 0.00 76 1014.6
20260506022956 25 141 0.0 12.9 0.00 0.00 0.00 77 1014.7
20260506022456 25 101 0.0 12.9 0.00 0.00 0.00 76 1014.7
20260506022005 25 105 0.0 12.9 0.00 0.00 0.00 76 1014.6
20260506021956 25 154 6.4 12.9 0.00 0.00 0.00 77 1014.7
20260506021228 25 135 8.0 12.9 0.00 0.00 0.00 76 1014.6
20260506020455 25 138 3.2 12.9 0.00 0.00 0.00 76 1014.9
20260506015956 25 176 6.4 12.9 0.00 0.00 0.00 78 1014.7
20260506015727 24 148 0.0 9.7 0.00 0.00 0.00 80 1015.1
20260506014957 24 110 0.0 12.9 0.00 0.00 0.00 78 1014.9
20260506014455 24 170 3.2 12.9 0.00 0.00 0.00 80 1015.2
20260506013956 24 163 8.0 16.1 0.00 0.00 0.00 81 1015.2
20260506013728 24 136 8.0 16.1 0.00 0.00 0.00 81 1014.9
20260506013604 24 134 8.0 14.5 0.00 0.00 0.00 81 1015.0
20260506012726 24 111 9.7 14.5 0.00 0.00 0.00 81 1015.1
20260506012227 25 112 0.0 9.7 0.00 0.00 0.00 82 1015.0
20260506011456 24 161 1.6 9.7 0.00 0.00 0.00 80 1015.0
20260506010945 24 131 0.0 8.0 0.00 0.00 0.00 81 1014.9
20260506010433 24 149 0.0 12.9 0.00 0.00 0.00 81 1015.0
20260506005931 24 149 4.8 12.9 0.00 0.00 0.00 82 1015.2
20260506005651 24 204 0.0 12.9 0.00 0.00 0.00 81 1015.1
20260506004907 23 166 3.2 12.9 0.00 0.00 0.00 82 1015.1
20260506004357 23 111 0.0 12.9 0.00 0.00 0.00 83 1015.3
20260506003853 24 144 0.0 12.9 0.00 0.00 0.00 84 1015.2
20260506003346 24 133 3.2 12.9 0.00 0.00 0.00 85 1015.5
20260506002847 23 135 0.0 14.5 0.00 0.00 0.00 85 1015.6
20260506002347 23 147 6.4 12.9 0.00 0.00 0.00 85 1015.8
20260506001847 23 146 0.0 9.7 0.00 0.00 0.00 87 1015.6
20260506001347 23 171 0.0 8.0 0.00 0.00 0.00 86 1015.5
20260506000847 23 164 0.0 9.7 0.00 0.00 0.00 88 1015.7
20260506000346 23 129 4.8 14.5 0.00 0.00 0.00 88 1015.8
20260505235849 23 159 8.0 14.5 0.00 0.00 0.00 88 1015.9
20260505235618 23 215 1.6 14.5 0.00 0.00 0.00 89 1016.1
20260505235107 23 176 6.4 12.9 0.00 0.00 0.00 91 1015.9
20260505234323 23 158 0.0 12.9 0.00 0.00 0.00 92 1015.9
20260505234053 23 164 4.8 14.5 0.00 0.00 0.00 92 1016.1
20260505233322 22 189 4.8 14.5 0.00 0.00 0.00 91 1016.0
20260505232823 22 137 0.0 9.7 0.00 0.00 0.00 91 1015.9
20260505232323 22 145 6.4 14.5 0.00 0.00 0.00 91 1016.2
20260505232055 22 142 0.0 14.5 0.00 0.00 0.00 91 1016.4
20260505231813 22 139 3.2 16.1 0.00 0.00 0.00 90 1016.5
20260505230811 22 194 6.4 16.1 0.00 0.00 0.00 90 1016.5
20260505230310 22 153 11.3 16.1 0.00 0.00 0.00 90 1016.6
20260505225810 23 235 8.0 16.1 0.00 0.00 0.00 89 1016.6
20260505225311 23 187 3.2 14.5 0.00 0.00 0.00 88 1016.6
20260505224810 23 130 4.8 14.5 0.00 0.00 0.00 88 1016.6
20260505224310 23 112 8.0 12.9 0.00 0.00 0.00 87 1016.8
20260505223810 23 137 6.4 9.7 0.00 0.00 0.00 86 1016.7
20260505223311 23 143 0.0 9.7 0.00 0.00 0.00 86 1016.9
20260505222811 23 100 0.0 9.7 0.00 0.00 0.00 86 1016.8
20260505222310 23 165 4.8 9.7 0.00 0.00 0.00 88 1017.0
20260505222042 23 159 1.6 14.5 0.00 0.00 0.00 89 1016.9
20260505221311 24 152 0.0 16.1 0.00 0.00 0.00 90 1017.0
20260505220811 24 119 0.0 16.1 0.00 0.00 0.00 88 1017.0
20260505220310 24 133 0.0 14.5 0.00 0.00 0.00 88 1016.9
20260505215809 24 124 6.4 12.9 0.00 0.00 0.00 88 1017.1
20260505215310 25 192 0.0 12.9 0.00 0.00 0.00 88 1017.1
20260505214810 25 156 6.4 12.9 0.00 0.00 0.00 87 1017.1
20260505214309 25 0.0 0.0 0.00 0.00 0.00 86
20260505213049 25 85 0.0 12.9 0.00 0.00 0.00 83 1017.1
20260505213045 25 78 0.0 0.0 0.00 0.00 0.00 82 1017.3
20260505212132 25 78 0.0 0.0 0.00 0.00 0.00 82 1017.3
20260505211648 25 113 12.9 14.5 0.00 0.00 0.00 85 1017.5